sat.trackr.live / text

‹ back to catalog

STARLINK-4056

NORAD 53242 · 2022-086A

PAYLOAD ACTIVE UNKNOWN

§ Identity

Operator
Country
US
Launch date
2022-07-24
Launch site
AFETR
Launch vehicle
Mass (kg)
RCS (m²)

Purposes: comms

External: N2YO · Heavens-Above · Gunter

§ Orbital elements

Epoch: 2026-09-19T18:06:48.757536Z

Period
93.85 min
Inclination
53.1602°
Eccentricity
0.0001018
Mean motion
15.34387644 rev/d
Perigee alt
462.0 km
Apogee alt
463.4 km
Semi-major
6,840.9 km
B*
2.7374e-5
RAAN
39.2089°
Arg perigee
81.0652°
Mean anomaly
279.0466°
Rev number
23,072

§ Raw data

STARLINK-40561 53242U 22086A   26262.75473099  .00000549  00000+0  27374-4 0  99902 53242  53.1602  39.2089 0001018  81.0652 279.0466 15.34387644230721

JSON: /api/v1/satellites/53242 · /tle

For live sub-satellite position, see the globe view (requires WebGL).

§ Visibility from observer

Set your observer location to see the next 7 days of passes ≥ 10°. The values pass through the URL so the page stays shareable.

No JS? Fill the form by hand. The geolocation button needs JavaScript.